Time,TemperatureF,DewpointF,PressureIn,WindDirection,WindDirectionDegrees,WindSpeedMPH,WindSpeedGustMPH,Humidity,HourlyPrecipIn,Conditions,Clouds,dailyrainin,SolarRadiationWatts/m^2,SoftwareType,DateUTC
2013-02-19 00:01:00,60.0,56.0,-100.00,SE,143,4.0,7.0,88,0.00,,,0.00,0.000000,,2013-02-19 10:01:00,
2013-02-19 00:11:00,60.0,56.0,-100.00,SE,143,4.0,7.0,88,0.00,,,0.00,0.000000,,2013-02-19 10:11:00,
2013-02-19 00:21:00,60.0,56.0,-100.00,SE,143,4.0,7.0,88,0.00,,,0.00,0.000000,,2013-02-19 10:21:00,
2013-02-19 00:31:00,60.0,56.0,-100.00,SE,143,4.0,7.0,88,0.00,,,0.00,0.000000,,2013-02-19 10:31:00,
2013-02-19 01:01:00,58.0,51.0,-100.00,ESE,122,4.0,8.0,78,0.00,,,0.00,0.000000,,2013-02-19 11:01:00,
2013-02-19 01:11:00,58.0,51.0,-100.00,ESE,122,4.0,8.0,78,0.00,,,0.00,0.000000,,2013-02-19 11:11:00,
2013-02-19 01:21:00,58.0,51.0,-100.00,ESE,122,4.0,8.0,78,0.00,,,0.00,0.000000,,2013-02-19 11:21:00,
2013-02-19 01:31:00,58.0,51.0,-100.00,ESE,122,4.0,8.0,78,0.00,,,0.00,0.000000,,2013-02-19 11:31:00,
2013-02-19 02:01:00,55.0,49.0,-100.00,SE,136,4.0,9.0,80,0.00,,,0.00,0.000000,,2013-02-19 12:01:00,
2013-02-19 02:12:00,55.0,49.0,-100.00,SE,136,4.0,9.0,80,0.00,,,0.00,0.000000,,2013-02-19 12:12:00,
2013-02-19 02:21:00,55.0,49.0,-100.00,SE,136,4.0,9.0,80,0.00,,,0.00,0.000000,,2013-02-19 12:21:00,
2013-02-19 02:32:00,55.0,49.0,-100.00,SE,136,4.0,9.0,80,0.00,,,0.00,0.000000,,2013-02-19 12:32:00,
2013-02-19 03:02:00,55.0,51.0,-100.00,SE,130,3.0,9.0,86,0.00,,,0.00,0.000000,,2013-02-19 13:02:00,
2013-02-19 03:11:00,55.0,51.0,-100.00,SE,130,3.0,9.0,86,0.00,,,0.00,0.000000,,2013-02-19 13:11:00,
2013-02-19 03:22:00,55.0,51.0,-100.00,SE,130,3.0,9.0,86,0.00,,,0.00,0.000000,,2013-02-19 13:22:00,
2013-02-19 03:31:00,55.0,51.0,-100.00,SE,130,3.0,9.0,86,0.00,,,0.00,0.000000,,2013-02-19 13:31:00,
2013-02-19 04:01:00,57.0,51.0,-100.00,SE,128,4.0,9.0,81,0.00,,,0.00,0.000000,,2013-02-19 14:01:00,
2013-02-19 04:11:00,57.0,51.0,-100.00,SE,128,4.0,9.0,81,0.00,,,0.00,0.000000,,2013-02-19 14:11:00,
2013-02-19 04:21:00,57.0,51.0,-100.00,SE,128,4.0,9.0,81,0.00,,,0.00,0.000000,,2013-02-19 14:21:00,
2013-02-19 04:32:00,57.0,51.0,-100.00,SE,128,4.0,9.0,81,0.00,,,0.00,0.000000,,2013-02-19 14:32:00,
2013-02-19 05:01:00,56.0,48.0,-100.00,ENE,74,5.0,8.0,75,0.00,,,0.00,0.000000,,2013-02-19 15:01:00,
2013-02-19 05:11:00,56.0,48.0,-100.00,ENE,74,5.0,8.0,75,0.00,,,0.00,0.000000,,2013-02-19 15:11:00,
2013-02-19 05:21:00,56.0,48.0,-100.00,ENE,74,5.0,8.0,75,0.00,,,0.00,0.000000,,2013-02-19 15:21:00,
2013-02-19 05:31:00,56.0,48.0,-100.00,ENE,74,5.0,8.0,75,0.00,,,0.00,0.000000,,2013-02-19 15:31:00,
2013-02-19 06:01:00,56.0,50.0,-100.00,SE,135,5.0,8.0,79,0.00,,,0.00,0.000000,,2013-02-19 16:01:00,
2013-02-19 06:11:00,56.0,50.0,-100.00,SE,135,5.0,8.0,79,0.00,,,0.00,0.000000,,2013-02-19 16:11:00,
2013-02-19 06:21:00,56.0,50.0,-100.00,SE,135,5.0,8.0,79,0.00,,,0.00,0.000000,,2013-02-19 16:21:00,
2013-02-19 06:31:00,56.0,50.0,-100.00,SE,135,5.0,8.0,79,0.00,,,0.00,0.000000,,2013-02-19 16:31:00,
2013-02-19 07:01:00,57.0,51.0,-100.00,South,174,6.0,12.0,80,0.00,,,-99.99,0.000000,,2013-02-19 17:01:00,
2013-02-19 07:11:00,57.0,51.0,-100.00,South,174,6.0,12.0,80,0.00,,,-99.99,0.000000,,2013-02-19 17:11:00,
2013-02-19 07:21:00,57.0,51.0,-100.00,South,174,6.0,12.0,80,0.00,,,-99.99,0.000000,,2013-02-19 17:21:00,
2013-02-19 07:31:00,57.0,51.0,-100.00,South,174,6.0,12.0,80,0.00,,,-99.99,0.000000,,2013-02-19 17:31:00,
2013-02-19 08:01:00,60.0,52.0,-100.00,SSE,163,7.0,12.0,76,0.00,,,0.00,36.000000,,2013-02-19 18:01:00,
2013-02-19 08:11:00,60.0,52.0,-100.00,SSE,163,7.0,12.0,76,0.00,,,0.00,36.000000,,2013-02-19 18:11:00,
2013-02-19 08:21:00,60.0,52.0,-100.00,SSE,163,7.0,12.0,76,0.00,,,0.00,36.000000,,2013-02-19 18:21:00,
2013-02-19 08:31:00,60.0,52.0,-100.00,SSE,163,7.0,12.0,76,0.00,,,0.00,36.000000,,2013-02-19 18:31:00,
2013-02-19 09:01:00,68.0,52.0,-100.00,North,3,5.0,11.0,56,0.00,,,0.00,306.000000,,2013-02-19 19:01:00,
2013-02-19 09:11:00,68.0,52.0,-100.00,North,3,5.0,11.0,56,0.00,,,0.00,306.000000,,2013-02-19 19:11:00,
2013-02-19 09:21:00,68.0,52.0,-100.00,North,3,5.0,11.0,56,0.00,,,0.00,306.000000,,2013-02-19 19:21:00,
2013-02-19 09:31:00,68.0,52.0,-100.00,North,3,5.0,11.0,56,0.00,,,0.00,306.000000,,2013-02-19 19:31:00,
2013-02-19 10:01:00,70.0,50.0,-100.00,NE,41,4.0,9.0,50,0.00,,,0.00,612.000000,,2013-02-19 20:01:00,
2013-02-19 10:11:00,70.0,50.0,-100.00,NE,41,4.0,9.0,50,0.00,,,0.00,612.000000,,2013-02-19 20:11:00,
2013-02-19 10:21:00,70.0,50.0,-100.00,NE,41,4.0,9.0,50,0.00,,,0.00,612.000000,,2013-02-19 20:21:00,
2013-02-19 10:31:00,70.0,50.0,-100.00,NE,41,4.0,9.0,50,0.00,,,0.00,612.000000,,2013-02-19 20:31:00,
2013-02-19 11:01:00,74.0,52.0,-100.00,WSW,243,7.0,12.0,46,0.00,,,-99.99,881.000000,,2013-02-19 21:01:00,
2013-02-19 11:11:00,74.0,52.0,-100.00,WSW,243,7.0,12.0,46,0.00,,,-99.99,881.000000,,2013-02-19 21:11:00,
2013-02-19 11:21:00,74.0,52.0,-100.00,WSW,243,7.0,12.0,46,0.00,,,-99.99,881.000000,,2013-02-19 21:21:00,
2013-02-19 11:31:00,74.0,52.0,-100.00,WSW,243,7.0,12.0,46,0.00,,,-99.99,881.000000,,2013-02-19 21:31:00,
2013-02-19 12:02:00,74.0,49.0,-100.00,ESE,113,4.0,24.0,41,0.00,,,0.00,1038.000000,,2013-02-19 22:02:00,
2013-02-19 12:11:00,74.0,49.0,-100.00,ESE,113,4.0,24.0,41,0.00,,,0.00,1038.000000,,2013-02-19 22:11:00,
2013-02-19 12:21:00,74.0,49.0,-100.00,ESE,113,4.0,24.0,41,0.00,,,0.00,1038.000000,,2013-02-19 22:21:00,
2013-02-19 12:31:00,74.0,49.0,-100.00,ESE,113,4.0,24.0,41,0.00,,,0.00,1038.000000,,2013-02-19 22:31:00,
2013-02-19 13:01:00,75.0,50.0,-100.00,North,8,10.0,17.0,41,0.00,,,0.00,995.000000,,2013-02-19 23:01:00,
2013-02-19 13:11:00,75.0,50.0,-100.00,North,8,10.0,17.0,41,0.00,,,0.00,995.000000,,2013-02-19 23:11:00,
2013-02-19 13:21:00,75.0,50.0,-100.00,North,8,10.0,17.0,41,0.00,,,0.00,995.000000,,2013-02-19 23:21:00,
2013-02-19 13:31:00,75.0,50.0,-100.00,North,8,10.0,17.0,41,0.00,,,0.00,995.000000,,2013-02-19 23:31:00,
2013-02-19 14:01:00,76.0,51.0,-100.00,NE,48,11.0,23.0,41,0.00,,,0.00,1177.000000,,2013-02-20 00:01:00,
2013-02-19 14:11:00,76.0,51.0,-100.00,NE,48,11.0,23.0,41,0.00,,,0.00,1177.000000,,2013-02-20 00:11:00,
2013-02-19 14:21:00,76.0,51.0,-100.00,NE,48,11.0,23.0,41,0.00,,,0.00,1177.000000,,2013-02-20 00:21:00,
2013-02-19 14:31:00,76.0,51.0,-100.00,NE,48,11.0,23.0,41,0.00,,,0.00,1177.000000,,2013-02-20 00:31:00,
2013-02-19 15:02:00,74.0,50.0,-100.00,NNE,16,12.0,24.0,43,0.00,,,0.00,866.000000,,2013-02-20 01:02:00,
2013-02-19 15:11:00,74.0,50.0,-100.00,NNE,16,12.0,24.0,43,0.00,,,0.00,866.000000,,2013-02-20 01:11:00,
2013-02-19 15:21:00,74.0,50.0,-100.00,NNE,16,12.0,24.0,43,0.00,,,0.00,866.000000,,2013-02-20 01:21:00,
2013-02-19 15:31:00,74.0,50.0,-100.00,NNE,16,12.0,24.0,43,0.00,,,0.00,866.000000,,2013-02-20 01:31:00,
2013-02-19 16:01:00,75.0,54.0,-100.00,NNE,26,15.0,26.0,48,0.00,,,0.00,882.000000,,2013-02-20 02:01:00,
2013-02-19 16:11:00,75.0,54.0,-100.00,NNE,26,15.0,26.0,48,0.00,,,0.00,882.000000,,2013-02-20 02:11:00,
2013-02-19 16:21:00,75.0,54.0,-100.00,NNE,26,15.0,26.0,48,0.00,,,0.00,882.000000,,2013-02-20 02:21:00,
2013-02-19 16:31:00,75.0,54.0,-100.00,NNE,26,15.0,26.0,48,0.00,,,0.00,882.000000,,2013-02-20 02:31:00,
2013-02-19 17:01:00,72.0,54.0,-100.00,NNE,24,17.0,28.0,54,0.00,,,0.00,602.000000,,2013-02-20 03:01:00,
2013-02-19 17:12:00,72.0,54.0,-100.00,NNE,24,17.0,28.0,54,0.00,,,0.00,602.000000,,2013-02-20 03:12:00,
2013-02-19 17:21:00,72.0,54.0,-100.00,NNE,24,17.0,28.0,54,0.00,,,0.00,602.000000,,2013-02-20 03:21:00,
2013-02-19 17:32:00,72.0,54.0,-100.00,NNE,24,17.0,28.0,54,0.00,,,0.00,602.000000,,2013-02-20 03:32:00,
2013-02-19 18:01:00,69.0,51.0,-100.00,NE,34,12.0,30.0,53,0.00,,,0.00,303.000000,,2013-02-20 04:01:00,
2013-02-19 18:11:00,69.0,51.0,-100.00,NE,34,12.0,30.0,53,0.00,,,0.00,303.000000,,2013-02-20 04:11:00,
2013-02-19 18:21:00,69.0,51.0,-100.00,NE,34,12.0,30.0,53,0.00,,,0.00,303.000000,,2013-02-20 04:21:00,
2013-02-19 18:31:00,69.0,51.0,-100.00,NE,34,12.0,30.0,53,0.00,,,0.00,303.000000,,2013-02-20 04:31:00,
2013-02-19 19:02:00,68.0,51.0,-100.00,WSW,248,2.0,21.0,55,0.00,,,0.00,51.000000,,2013-02-20 05:02:00,
2013-02-19 19:12:00,68.0,51.0,-100.00,WSW,248,2.0,21.0,55,0.00,,,0.00,51.000000,,2013-02-20 05:12:00,
2013-02-19 19:22:00,68.0,51.0,-100.00,WSW,248,2.0,21.0,55,0.00,,,0.00,51.000000,,2013-02-20 05:22:00,
2013-02-19 19:32:00,68.0,51.0,-100.00,WSW,248,2.0,21.0,55,0.00,,,0.00,51.000000,,2013-02-20 05:32:00,
2013-02-19 20:01:00,62.0,49.0,-100.00,North,10,2.0,8.0,63,0.00,,,0.00,0.000000,,2013-02-20 06:01:00,
2013-02-19 20:11:00,62.0,49.0,-100.00,North,10,2.0,8.0,63,0.00,,,0.00,0.000000,,2013-02-20 06:11:00,
2013-02-19 20:21:00,62.0,49.0,-100.00,North,10,2.0,8.0,63,0.00,,,0.00,0.000000,,2013-02-20 06:21:00,
2013-02-19 20:31:00,62.0,49.0,-100.00,North,10,2.0,8.0,63,0.00,,,0.00,0.000000,,2013-02-20 06:31:00,
2013-02-19 21:01:00,62.0,54.0,-100.00,South,183,4.0,9.0,74,0.00,,,0.00,0.000000,,2013-02-20 07:01:00,
2013-02-19 21:11:00,62.0,54.0,-100.00,South,183,4.0,9.0,74,0.00,,,0.00,0.000000,,2013-02-20 07:11:00,
2013-02-19 21:21:00,62.0,54.0,-100.00,South,183,4.0,9.0,74,0.00,,,0.00,0.000000,,2013-02-20 07:21:00,
2013-02-19 21:31:00,62.0,54.0,-100.00,South,183,4.0,9.0,74,0.00,,,0.00,0.000000,,2013-02-20 07:31:00,
2013-02-19 22:05:00,59.0,52.0,-100.00,SE,128,3.0,7.0,78,0.00,,,0.00,0.000000,,2013-02-20 08:05:00,
2013-02-19 22:11:00,59.0,52.0,-100.00,SE,128,3.0,7.0,78,0.00,,,0.00,0.000000,,2013-02-20 08:11:00,
2013-02-19 22:21:00,59.0,52.0,-100.00,SE,128,3.0,7.0,78,0.00,,,0.00,0.000000,,2013-02-20 08:21:00,
2013-02-19 22:31:00,59.0,52.0,-100.00,SE,128,3.0,7.0,78,0.00,,,0.00,0.000000,,2013-02-20 08:31:00,
2013-02-19 23:01:00,57.0,51.0,-100.00,East,94,3.0,7.0,81,0.00,,,0.00,0.000000,,2013-02-20 09:01:00,
2013-02-19 23:11:00,57.0,51.0,-100.00,East,94,3.0,7.0,81,0.00,,,0.00,0.000000,,2013-02-20 09:11:00,
2013-02-19 23:21:00,57.0,51.0,-100.00,East,94,3.0,7.0,81,0.00,,,0.00,0.000000,,2013-02-20 09:21:00,
2013-02-19 23:31:00,57.0,51.0,-100.00,East,94,3.0,7.0,81,0.00,,,0.00,0.000000,,2013-02-20 09:31:00,